C/2017 M3 ( PanSTARRS )

Japanese version
Home page
Updated on March 3, 2018

---------------------------------------------------------------------

* Profile

Discovery Date June 20, 2017
Magnitude 21.1 mag
Discoverer Pan-STARRS 1 telescope (Haleakala)

* Orbital Elements

Epoch 2017 May 7.0 TT = JDT 2457880.5
T 2017 Apr. 28.18385 TT                                 MPCW
q   4.6561807            (2000.0)            P               Q
z  +0.0057500      Peri.  110.31257     -0.36927033     -0.92167929
 +/-0.0000171      Node     6.99741     -0.21826540     -0.03839017
e   0.9732269      Incl.   77.50690     +0.90332698     -0.38604854
From 35 observations 2017 June 20-2018 Jan. 15, mean residual 0".3.

* Magnitudes Graph

        m1 = 10.5 + 5 log d + 10.0 log r

---------------------------------------------------------------------

The orbital elements are published on M.P.E.C. 2018-B155.
The magnitudes graphs are made with Comet for Windows.

---------------------------------------------------------------------

Copyright(C) Seiichi Yoshida (comet@aerith.net). All rights reserved.